Probability
0 0 0 0 0 0 0 0 0 0 0 0 0 0 0 0 0 0 0 0 0 0 0 0 0 0 0 0 0 0 0 0 0 0 0 0 0 0 0 0 0 0 0
0 0 0 0 0 0 0 0 0 0 0 0 0 0 0 0 0 0 0 0 0 0 0 0 0 0 0 0 0 0 0 0 0 0 0 0 0 0 0 0 0 0 0
0 0 0 0 0 0 0 0 0 0 0 0 0 0 0 0 0 0 0 0 0 0 0 0 0 0 0 0 0 0 0 0 0 0 0 0 0 0 0 0 0 0 0
0 0 0 0 0 0 0 0 0 0 0 0 0 0 0 0 0 0 0 0 0 0 0 0 0 0 0 0 0 0 0 0 0 0 0 0 0 0 0 0 0 0 0
0 0 0 0 0 0 0 0 0 0 0 0 0 0 0 0 0 0 0 0 0 0 0 0 0 0 0 0 0 0 0 0 0 0 0 0 0 0 0 0 0 0 0
0 0 0 0 0 0 0 0 0 0 0 0 0 0 0 0 0 0 0 0 0 0 0 0 0 0 0 0 0 0 0 0 0 0 0 0 0 0 0 0 0 0 0
0 0 0 0 0 0 0 0 0 0 0 0 0 0 0 0 0 0 0 0 0 0 0 0 0 0 0 0 0 0 0 0 0 0 0 0 0 0 0 0 0 0 0
0 0 0 0 0 0 0 0 0 0 0 0 0 0 0 0 0 0 0 0 0 0 0 0 0 0 0 0 0 0 0 0 0 0 0 0 0 0 0 0 0 0 0
0 0 0 0 0 0 0 0 0 0 0 0 0 0 0 0 0 0 0 0 0 0 0 0 0 0 0 0 0 0 0 0 0 0 0 0 0 0 0 0 0 0 0
0 0 0 0 0 0 0 0 0 0 0 0 0 0 0 0 0 0 0 0 0 0 0 0 0 0 0 0 0 0 0 0 0 0 0 0 0 0 0 0 0 0 0
0 0 0 0 0 0 0 0 0 0 0 0 0 0 0 0 0 0 0 0 0 0 0 0 0 0 0 0 0 0 0 0 0 0 0 0 0 0 0 0 0 0 0
0 0 0 0 0 0 0 0 0 0 0 0 0 0 0 0 0 0 0 0 0 0 0 0 0 0 0 0 0 0 0 0 0 0 0 0 0 0 0 0 0 0 0
0 0 0 0 0 0 0 0 0 0 0 0 0 0 0 0 0 0 0 0 0 0 0 0 0 0 0 0 0 0 0 0 0 0 0 0 0 0 0 0 0 0 0
0 0 0 0 0 0 0 0 0 0 0 0 0 0 0 0 0 0 0 0 0 0 0 0 0 0 0 0 0 0 0 0 0 0 0 0 0 0 0 0 0 0 0
0 0 0 0 0 0 0 0 0 0 0 0 0 0 0 0 0 0 0 0 0 0 0 0 0 0 0 0 0 0 0 0 0 0 0 0 0 0 0 0 0 0 0
0 0 0 0 0 0 0 0 0 0 0 0 0 0 0 0 0 0 0 0 0 0 0 0 0 0 0 0 0 0 0 0 0 0 0 0 0 0 0 0 0 0 0
0 0 0 0 0 0 0 0 0 0 0 0 0 0 0 0 0 0 0 0 0 0 0 0 0 0 0 0 0 0 0 0 0 0 0 0 0 0 0 0 0 0 0
0 0 0 0 0 0 0 0 0 0 0 0 0 0 0 0 0 0 0 0 0 0 0 0 0 0 0 0 0 0 0 0 0 0 0 0 0 0 0 0 0 0 0
0 0 0 0 0 0 0 0 0 0 0 0 0 0 0 0 0 0 0 0 0 0 0 0 0 0 0 0 0 0 0 0 0 0 0 0 0 0 0 0 0 0 0
0 0 0 0 0 0 0 0 0 0 0 0 0 0 0 0 0 0 0 0 0 0 0 0 0 0 0 0 0 0 0 0 0 0 0 0 0 0 0 0 0 0 0
0 0 0 0 0 0 0 0 0 0 0 0 0 0 0 0 0 0 0 0 0 0 0 0 0 0 0 0 0 0 0 0 0 0 0 0 0 0 0 0 0 0 0
0 0 0 0 0 0 0 0 0 0 0 0 0 0 0 0 0 0 0 0 0 0 0 0 0 0 0 0 0 0 0 0 0 0 0 0 0 0 0 0 0 0 0
0 0 0 0 0 0 0 0 0 0 0 0 0 0 0 0 0 0 0 0 0 0 0 0 0 0 0 0 0 0 0 0 0 0 0 0 0 0 0 0 0 0 0
0 0 0 0 0 0 0 0 0 0 0 0 0 0 0 0 0 0 0 0 0 0 0 0 0 0 0 0 0 0 0 0 0 0 0 0 0 0 0 0 0 0 0
0 0 0 0 0 0 0 0 0 0 0 0 0 0 0 0 0 0 0 0 0 0 0 0 0 0 0 0 0 0 0 0 0 0 0 0 0 0 0 0 0 0 0
0 0 0 0 0 0 0 0 0 0 0 0 0 0 0 0 0 0 0 0 0 0 0 0 0 0 0 0 0 0 0 0 0 0 0 0 0 0 0 0 0 0 0
Wind_Speed
8 6 3 2 4 6 9 11 13 11 9 7 8 8 10 8 7 9 10 12 12 12 12 10 9 9 10 11 10 7 7 7 3 3 5 5 8 11 10 9 8 10 10
11 10 6 2 3 5 7 9 11 11 11 11 8 6 5 5 6 6 9 11 12 13 13 13 10 10 9 10 10 9 6 6 6 5 3 5 5 8 12 10 11 12 9
7 8 7 3 1 3 6 7 9 10 10 9 4 2 1 2 3 7 7 10 12 13 13 14 13 11 12 12 13 12 12 10 7 7 7 5 8 4 4 8 10 9 9
5 6 6 4 2 2 2 4 6 7 8 8 7 9 9 11 11 8 8 9 12 13 14 14 14 14 13 14 14 13 12 11 10 7 9 8 4 4 5 3 5 8 10
4 5 5 4 3 1 0 2 3 5 6 7 9 10 12 12 8 6 8 9 10 13 15 15 15 15 14 15 14 13 14 13 14 10 6 10 8 7 6 8 4 4 6
4 4 5 4 4 3 2 0 1 4 5 7 9 10 14 13 10 10 10 9 8 10 14 15 15 16 15 16 16 15 16 15 16 13 10 8 7 9 10 14 11 7 5
2 3 5 5 5 4 3 2 2 4 5 6 8 11 13 13 14 13 11 11 9 10 12 14 15 15 16 15 14 15 17 17 16 17 15 14 13 6 7 11 10 8 6
1 2 2 3 4 4 3 3 3 5 5 6 8 9 10 9 10 12 11 11 11 11 11 13 15 16 17 16 16 15 17 15 18 19 18 14 13 11 10 8 7 8 7
2 2 2 3 4 5 4 3 4 5 6 6 7 7 9 9 11 12 10 10 11 10 11 12 14 15 16 17 16 15 17 17 18 18 18 17 13 11 11 10 9 10 11
3 3 3 4 4 4 4 4 4 5 6 6 6 7 8 9 10 9 11 12 12 12 11 12 13 14 15 16 16 16 16 17 17 14 16 17 13 12 11 11 10 11 13
3 3 3 4 4 5 5 5 5 5 6 6 7 7 8 8 8 8 11 11 11 11 12 13 13 13 14 14 15 17 16 18 18 17 17 19 15 13 11 10 10 12 11
3 3 4 5 5 6 6 6 6 6 7 7 7 7 8 8 8 9 10 10 11 11 11 11 12 12 13 13 15 17 17 18 19 18 18 19 14 17 13 11 13 13 12
4 4 5 6 6 7 7 7 7 7 7 7 7 8 8 8 9 10 10 10 10 10 10 10 12 12 13 13 14 16 16 17 18 18 18 18 16 17 13 14 14 12 12
4 5 5 6 7 7 7 7 8 8 8 7 7 8 9 10 10 10 10 10 10 10 10 11 11 12 12 12 12 13 15 16 16 16 17 17 17 17 16 15 15 13 12
6 6 6 7 7 7 8 7 8 8 8 8 9 10 10 10 10 10 10 10 10 10 10 11 11 11 10 10 11 11 13 14 15 14 15 15 19 23 19 14 11 12 12
7 7 8 8 8 8 9 8 8 8 8 9 10 11 11 11 11 11 11 10 10 10 10 11 12 12 10 18 23 17 11 11 13 13 12 14 19 24 30 30 27 21 16
8 9 9 9 9 9 8 9 8 9 9 10 11 11 11 12 12 12 11 11 11 10 11 11 11 12 14 22 24 24 13 10 10 11 11 10 12 19 14 21 29 27 30
8 8 8 9 9 8 9 9 9 10 10 11 11 11 12 12 12 11 11 12 10 10 10 11 11 11 13 21 23 23 14 9 9 10 11 12 11 12 13 12 13 13 15
9 9 9 9 9 9 10 10 11 10 11 12 12 12 12 14 13 12 12 12 11 10 10 10 11 12 13 20 22 22 8 7 9 9 10 11 11 19 23 15 13 13 12
9 9 8 8 9 10 10 11 12 12 13 13 13 13 12 13 14 14 13 11 10 11 11 11 10 11 11 18 21 20 6 7 7 6 8 16 15 19 22 14 12 13 12
10 9 9 8 9 11 11 12 13 13 14 14 13 13 13 13 13 13 11 11 11 11 11 12 10 10 12 16 19 20 8 6 6 6 6 8 18 20 22 19 12 16 12
9 9 9 11 10 10 11 14 15 15 14 14 14 14 13 12 12 12 12 11 11 12 11 11 10 8 9 12 15 18 16 13 7 6 6 8 17 19 20 16 16 21 18
10 10 11 13 12 10 10 14 16 15 15 14 14 13 13 12 11 12 13 12 10 10 10 9 9 8 6 8 16 18 18 17 9 6 11 13 16 16 13 16 18 15 9
11 11 12 14 15 13 12 13 15 14 14 15 14 13 13 13 11 10 9 10 9 10 10 10 10 9 7 6 6 7 8 11 8 6 9 12 13 11 10 10 9 6 6
10 10 12 14 17 16 15 13 13 13 14 14 14 13 12 12 12 10 9 11 10 12 13 10 8 9 9 10 15 10 6 5 6 5 3 3 4 5 5 5 5 5 5
12 13 13 14 16 15 15 14 12 12 14 14 13 11 11 11 10 11 11 13 15 21 21 19 16 11 15 20 18 16 15 14 13 8 4 4 5 6 6 6 6 5 6
Wind_Direction
326 334 327 199 175 179 188 193 197 196 181 181 191 200 212 211 211 214 212 209 209 207 209 219 210 205 215 219 214 214 218 224 186 226 275 268 242 240 238 233 232 232 228
358 1 11 55 162 185 192 195 199 195 195 201 199 200 206 213 216 219 219 214 213 212 214 218 217 211 217 222 216 209 215 218 184 186 216 288 289 242 234 226 227 230 225
1 358 5 18 70 194 199 202 203 201 202 198 181 179 176 270 226 222 225 219 216 217 220 220 218 216 215 224 220 212 213 223 209 194 182 207 244 285 262 235 231 225 220
8 5 5 5 346 258 217 208 203 203 201 189 188 196 210 226 228 225 227 221 217 221 221 223 221 220 220 225 223 217 216 216 223 212 219 222 194 216 286 269 240 229 225
15 10 5 359 357 352 225 215 202 209 202 198 204 210 227 237 242 232 232 230 224 224 225 224 224 225 225 227 224 220 216 217 224 216 207 226 233 226 240 270 265 252 235
15 7 3 14 8 12 16 7 218 233 216 210 215 219 232 240 246 244 241 240 235 231 229 227 227 229 229 228 226 224 221 222 223 223 214 203 208 210 216 240 247 242 236
9 0 7 10 5 1 348 322 265 258 240 224 227 229 236 241 245 249 248 248 247 241 236 229 230 232 232 232 227 226 226 225 224 225 226 224 226 208 206 229 245 243 233
315 335 354 7 356 349 341 316 286 273 263 243 242 241 241 242 248 250 249 249 250 249 243 232 234 234 233 232 229 229 229 228 228 230 228 230 229 218 214 216 223 249 247
283 310 341 358 352 346 336 310 294 286 279 263 258 256 250 245 249 253 253 254 254 255 248 241 239 238 236 234 231 232 230 229 230 231 229 230 230 224 222 217 210 225 250
303 316 338 345 339 333 327 329 310 291 286 280 267 263 260 254 254 259 260 259 259 258 256 251 246 243 239 236 233 236 234 232 231 229 229 230 230 226 221 221 219 219 235
305 317 325 328 328 331 332 329 320 309 301 293 283 278 274 269 265 263 264 264 265 263 260 257 253 249 245 240 237 237 234 234 235 231 230 231 225 225 221 219 219 222 222
329 327 326 330 332 329 322 316 310 306 299 295 293 287 284 283 278 272 270 269 268 266 263 262 259 256 252 245 240 241 237 235 236 233 231 232 225 225 221 219 221 222 220
347 342 338 329 320 313 309 308 307 303 301 301 299 296 293 288 282 279 278 276 273 272 269 265 263 261 257 252 246 244 242 238 236 233 230 230 224 226 221 219 221 221 223
342 335 325 314 306 304 303 304 303 300 301 302 300 295 292 287 284 283 282 280 277 275 273 268 265 264 262 257 252 248 246 243 240 235 232 229 223 224 221 221 221 220 221
334 325 313 304 302 304 303 301 300 301 303 301 297 293 292 289 286 285 283 280 277 276 273 272 270 267 264 260 256 250 247 246 244 239 234 230 228 227 226 224 219 216 220
315 308 305 305 304 302 302 303 302 301 302 298 295 295 295 293 290 288 285 282 279 277 276 273 273 271 269 275 277 272 252 242 241 241 236 233 237 238 238 236 230 218 216
305 305 304 300 299 299 300 302 299 301 301 297 296 296 295 293 291 289 287 285 283 280 279 276 273 271 271 279 283 280 272 248 238 235 233 232 232 235 233 240 241 237 229
305 304 303 302 301 300 302 301 301 303 301 299 298 297 296 295 293 288 286 285 282 280 280 279 277 276 277 284 287 285 276 257 242 234 228 228 228 225 225 224 229 233 236
303 300 298 298 301 304 305 307 307 305 303 302 300 299 298 297 296 293 290 288 286 284 280 280 279 277 280 286 289 288 271 258 248 236 228 227 225 231 234 228 225 229 233
300 302 303 303 305 306 309 309 308 308 305 303 301 299 297 296 295 293 292 290 286 285 285 283 278 275 277 284 289 288 272 260 254 241 232 238 234 235 238 230 220 227 226
301 304 304 303 302 305 309 307 307 305 302 301 300 299 297 294 293 293 292 291 290 288 286 284 280 275 275 284 288 288 278 255 253 247 235 234 244 242 240 236 224 229 223
308 308 307 306 305 304 305 305 305 303 302 301 300 300 298 296 297 294 295 292 290 291 289 287 285 276 275 281 285 286 283 277 256 248 237 233 243 246 245 242 234 234 233
305 306 305 306 307 303 299 299 302 305 305 303 301 300 299 296 293 294 296 297 293 291 291 289 288 286 273 275 285 288 288 283 272 248 246 244 245 245 247 247 242 236 227
305 306 307 308 309 308 301 295 300 304 304 303 303 301 301 300 297 293 292 292 293 292 291 290 289 288 282 273 270 268 276 277 276 271 261 258 251 240 235 242 246 230 219
302 301 302 303 304 306 305 303 303 305 304 303 302 302 300 300 301 296 292 292 284 285 292 290 288 291 292 285 286 281 261 248 245 245 233 232 232 226 218 218 221 219 220
303 304 302 301 304 307 308 308 307 305 305 306 306 304 302 301 300 301 301 294 293 300 301 298 294 289 288 295 295 294 289 283 271 257 231 231 228 224 220 217 215 213 214